Location: Holcomb Observatory
(44.4922°N, 73.1654°W)
Time: 03:13:14
(UTC-04:00)

Cosmos 2360 Rocket - Visible Passes

Search period start: 30 May 2017 00:00
Search period end: 09 June 2017 00:00
Orbit: 833 x 847 km, 71.0° (Epoch: 29 May)

Date Brightness Start Highest point End Pass type
(mag) Time Alt. Az. Time Alt. Az. Time Alt. Az.
30 May 3.5 01:28:59 10° NW 01:33:23 24° WSW 01:33:33 24° WSW visible
30 May 4.6 21:46:59 10° NNE 21:48:40 11° NE 21:50:21 10° NE visible
30 May 2.7 23:28:33 10° NNW 23:34:06 51° ENE 23:36:19 33° ESE visible
31 May 3.5 01:13:12 10° NW 01:17:45 25° WSW 01:18:04 25° WSW visible
31 May 4.6 21:31:38 10° NNE 21:32:54 11° NE 21:34:10 10° NE visible
31 May 2.8 23:12:54 10° NNW 23:18:24 48° ENE 23:20:52 30° ESE visible
01 Jun 3.4 00:57:27 10° NW 01:02:06 27° WSW 01:02:37 26° WSW visible
01 Jun 4.7 21:16:34 10° NNE 21:17:09 10° NE 21:17:43 10° NE visible
01 Jun 2.8 22:57:15 10° NNW 23:02:43 46° ENE 23:05:27 27° ESE visible
02 Jun 3.3 00:41:42 10° NW 00:46:27 28° WSW 00:47:12 28° WSW visible
02 Jun 2.9 22:41:36 10° NNW 22:47:00 43° ENE 22:50:04 23° ESE visible
03 Jun 3.2 00:25:57 10° NW 00:30:49 30° WSW 00:31:49 28° WSW visible
03 Jun 3.0 22:25:57 10° NNW 22:31:18 41° ENE 22:34:42 20° ESE visible
04 Jun 3.2 00:10:12 10° NW 00:15:10 32° WSW 00:16:28 29° SW visible
04 Jun 3.1 22:10:18 10° NNW 22:15:36 39° NE 22:19:23 18° ESE visible
04 Jun 3.2 23:54:28 10° NW 23:59:31 34° WSW 00:01:09 29° SW visible
05 Jun 3.1 21:54:39 10° NNW 21:59:54 37° NE 22:04:05 15° ESE visible
05 Jun 3.1 23:38:44 10° NW 23:43:52 36° WSW 23:45:51 28° SW visible
06 Jun 3.2 21:39:01 10° N 21:44:11 35° NE 21:48:49 12° ESE visible
06 Jun 3.1 23:23:01 10° NW 23:28:13 39° WSW 23:30:35 26° SSW visible
07 Jun 3.3 21:23:22 10° N 21:28:28 33° NE 21:33:31 10° ESE visible
07 Jun 3.0 23:07:16 10° NW 23:12:34 41° WSW 23:15:22 24° SSW visible
08 Jun 3.3 21:07:44 10° N 21:12:46 31° NE 21:17:44 10° ESE visible
08 Jun 2.9 22:51:34 10° NW 22:56:54 44° WSW 23:00:10 22° SSW visible
